SCP
0 0 0 0 0 0 0 0 0 0 0 0 0 0 0 0 0 0 0 0 0 0 0 0 0 0 0 0 0 -0 0 0 0 0 0 0 -0 -0 0 0 0 0 0 0 0 0 0
0 0 0 0 0 0 0 0 0 0 0 0 0 0 0 0 0 0 0 0 0 0 0 0 0 0 0 0 -0 -0 0 0 0 0 0 0 -0 -0 0 0 0 0 0 0 0 0 0
-0 -0 -0 -0 -0 0 0 0 0 0 0 0 0 0 0 0 0 0 0 0 0 0 0 0 0 0 0 0 0 -0 0 0 0 0 0 -0 0 0 0 0 0 0 0 0 0 0 0
-0 -0 0 0 0 0 0 0 0 0 0 0 0 0 0 0 0 0 0 0 0 0 0 0 0 0 0 -0 -0 0 -0 -0 0 0 0 0 0 0 0 0 0 0 0 0 0 0 0
0 0 0 0 0 0 0 0 0 0 0 0 0 0 0 0 0 0 0 0 0 0 0 0 0 0 -0 0 0 -0 0 0 0 -0 -0 -0 0 0 0 0 0 0 0 0 0 0 0
0 0 0 0 0 0 0 0 0 0 0 0 0 0 0 0 0 0 0 -0 0 0 0 0 0 0 0 0 0 0 0 -0 -0 -0 -0 0 0 0 0 0 0 0 0 0 0 0 0
0 0 0 0 0 0 0 0 0 0 0 0 0 0 0 0 0 0 0 0 0 0 0 0 0 0 0 0 0 0 0 0 -0 0 0 0 0 0 -0 0 0 0 0 0 0 0 0
0 0 0 0 0 0 0 0 0 0 0 0 0 0 0 0 0 0 0 0 0 0 0 0 0 -0 0 0 0 0 0 0 0 0 0 0 0 0 0 0 0 -0 0 -0 -0 0 0
0 0 0 0 0 0 0 0 0 0 0 0 0 0 0 0 0 0 0 0 0 0 0 0 0 0 -0 -0 -0 -0 0 0 0 0 0 0 0 0 0 0 0 0 0 -0 0 0 0
0 0 0 0 0 0 0 0 0 0 0 0 0 0 0 0 0 0 0 0 0 0 0 0 0 0 -0 -0 0 -0 0 0 0 0 0 0 0 0 0 0 0 0 0 -0 0 0 0
0 0 0 0 0 0 0 0 0 0 0 0 0 0 0 0 0 0 0 0 0 0 0 0 0 0 0 0 0 0 -0 0 0 0 0 0 0 0 0 0 0 0 0 0 0 0 0
0 0 0 0 0 0 0 0 0 0 0 0 0 0 0 0 0 0 0 0 0 0 0 0 0 0 0 0 0 0 -0 0 0 0 0 0 0 0 0 0 0 0 0 0 0 0 0
0 0 0 0 0 0 0 0 0 0 0 0 0 0 0 0 0 0 0 0 0 0 0 0 0 0 0 0 0 0 0 0 0 0 0 0 -0 -0 0 0 0 0 0 0 0 0 0
0 0 0 0 0 0 0 0 0 0 0 0 0 0 0 0 0 0 0 0 0 0 0 0 0 0 0 0 0 0 0 0 0 0 0 0 0 -0 -0 0 0 0 0 0 0 0 0
0 0 0 0 0 0 0 0 0 0 0 0 0 0 0 0 0 0 0 0 0 0 0 0 0 0 0 0 0 0 0 0 0 0 0 0 0 0 -0 0 0 0 0 0 0 0 0
0 0 0 0 0 0 0 0 0 0 0 0 0 0 0 0 0 0 0 0 0 0 0 0 0 0 0 0 0 0 0 0 0 0 0 0 0 0 0 0 0 0 0 0 0 -0 -0
-0 0 0 0 0 0 0 0 0 0 0 0 0 0 0 0 0 0 0 0 0 0 0 0 0 0 0 0 0 0 0 0 0 -0 -0 0 0 0 0 0 0 0 0 0 0 0 0
-0 -0 0 0 0 0 0 0 0 0 0 0 0 0 0 0 0 0 0 0 0 0 0 0 0 0 0 0 0 0 0 0 0 -0 0 0 0 0 0 0 0 0 0 0 0 0 0
0 0 0 0 0 0 0 0 0 0 0 0 0 0 0 0 0 0 0 0 0 0 0 0 0 0 0 0 0 -0 0 0 0 0 0 0 0 0 0 0 0 0 0 0 0 0 -0
0 0 0 0 0 0 0 0 0 0 0 0 0 0 0 0 0 0 0 0 0 0 0 0 0 0 0 -0 -0 -0 0 0 0 0 0 0 0 0 0 0 0 0 0 0 0 0 -0
0 0 0 0 0 -0 0 0 0 0 0 0 0 0 0 0 0 0 0 0 0 0 0 0 0 0 0 0 -0 0 -0 0 0 0 0 0 0 0 0 0 0 0 0 0 0 0 0
0 0 0 -0 -0 -0 0 0 0 0 0 0 0 0 0 0 0 0 0 0 0 0 0 0 0 0 0 0 -0 -0 0 -0 0 0 0 0 0 1 1 0 0 0 0 0 0 0 0
0 0 -0 0 -0 -0 -0 -0 0 0 0 0 0 0 0 0 0 0 0 0 0 0 0 0 0 0 -0 0 0 0 0 0 0 0 1 0 0 0 0 0 0 0 0 0 -0 0 -0
0 -0 -0 -0 -0 -0 0 -0 0 0 0 0 0 0 0 0 0 0 0 0 0 0 0 0 0 0 0 -0 0 0 0 1 0 0 0 0 0 0 0 0 0 0 0 0 0 0 0
0 0 0 -0 0 -0 -0 -0 0 0 0 0 0 0 0 0 0 0 0 0 0 0 0 0 0 0 0 0 -0 0 1 0 1 1 0 0 0 0 0 0 0 0 0 0 0 -0 -0
0 0 0 -0 0 -0 -0 -0 0 0 -0 0 0 0 0 0 0 0 0 -0 0 0 0 0 -0 -0 0 0 0 0 0 0 1 1 0 0 0 0 0 0 0 0 0 0 0 -0 -0
0 0 0 -0 -0 -0 -0 -0 0 -0 -0 0 0 0 0 0 0 0 0 0 -0 -0 0 0 0 -0 0 0 0 0 0 0 0 0 1 0 0 0 0 0 0 0 0 0 0 -0 0
0 0 0 0 -0 0 -0 -0 -0 0 -0 0 0 0 0 0 0 0 0 0 0 -0 -0 0 0 0 0 0 0 0 0 0 0 1 1 0 0 0 0 0 0 0 0 0 0 0 0
-0 -0 0 0 -0 -0 -0 0 0 -0 0 0 0 0 0 0 0 0 0 0 0 0 0 0 0 0 0 0 0 0 0 0 0 0 0 1 0 0 0 0 0 0 0 0 0 0 0
Wind_Speed_500mb
38 38 39 38 38 39 40 40 38 38 37 39 40 39 40 40 40 41 39 37 35 33 30 29 26 25 20 30 54 15 4 48 42 40 43 45 39 29 12 14 14 11 11 23 23 17 19
40 42 44 45 44 45 44 43 41 42 43 43 41 40 41 41 43 43 42 40 36 33 32 28 26 27 25 30 51 49 27 33 49 51 45 43 34 34 26 19 10 14 20 28 15 17 16
40 40 42 44 46 48 49 49 49 46 45 45 43 42 41 42 44 45 43 40 37 34 33 29 27 27 36 63 23 44 49 45 41 42 42 36 26 33 21 8 16 24 11 7 14 17 10
43 44 44 44 45 46 49 51 51 51 52 51 46 44 44 43 44 44 43 40 35 33 32 29 25 25 34 55 55 25 36 52 39 36 37 24 18 1 5 3 2 9 10 7 11 18 7
44 45 47 48 47 48 50 49 48 50 53 53 50 49 45 44 43 43 42 39 33 31 29 20 20 24 24 19 45 36 46 42 40 39 38 31 22 7 4 5 10 8 9 11 9 23 12
47 47 47 48 47 48 50 51 51 50 49 48 51 51 50 47 41 41 39 33 30 26 18 10 11 11 46 29 48 48 42 40 41 38 43 27 8 3 6 8 13 11 10 9 12 12 13
56 55 53 52 51 52 52 52 52 52 50 49 48 48 49 48 41 38 36 10 7 2 13 23 22 30 31 33 39 52 45 49 57 49 16 10 5 11 16 16 11 12 12 17 7 12 14
59 59 58 56 53 53 54 54 52 49 49 49 47 48 46 39 37 36 30 13 4 10 19 34 50 58 65 27 14 43 52 54 38 15 10 1 13 15 15 15 16 14 17 24 13 15 16
65 60 61 61 60 57 51 51 55 52 50 48 46 43 42 34 30 32 30 20 21 16 12 28 45 44 70 24 46 53 49 47 11 14 15 17 15 17 20 19 18 14 16 22 13 2 11
56 65 77 70 63 63 58 52 46 48 51 50 47 39 35 27 25 33 29 15 2 10 5 13 18 29 58 49 21 52 55 53 15 30 16 16 24 24 21 23 19 18 16 27 11 14 12
57 60 61 64 77 69 62 58 51 45 46 51 49 43 31 26 20 25 23 20 17 13 9 14 19 48 59 49 18 36 52 63 26 14 14 30 16 16 25 35 26 20 15 17 13 14 8
61 62 60 59 59 74 74 65 58 50 45 44 44 43 33 31 45 33 29 18 20 7 17 11 10 30 26 50 37 42 28 72 57 20 13 25 41 18 30 20 29 16 7 11 10 7 1
66 66 64 67 64 62 60 69 66 60 45 42 41 40 39 38 33 35 29 12 4 14 11 12 13 13 49 29 27 21 30 30 24 12 25 14 33 21 16 14 10 10 13 4 7 7 11
66 63 64 65 62 60 60 58 70 60 53 42 41 39 45 48 45 26 18 6 22 19 32 7 5 6 32 40 24 25 24 33 26 11 11 21 25 26 11 18 16 13 18 12 14 7 19
71 68 66 64 64 61 58 55 52 64 58 45 38 41 50 51 43 34 12 23 26 20 37 15 8 4 11 28 18 33 36 32 17 21 29 17 27 15 11 14 28 10 8 18 12 6 2
81 78 72 66 63 68 64 59 56 61 56 52 43 39 55 45 34 38 7 58 17 18 6 48 30 14 13 15 34 29 43 38 40 28 20 17 21 23 21 4 9 22 12 5 4 10 11
81 79 76 71 67 61 63 55 56 53 58 46 44 13 17 40 38 29 24 35 43 16 28 13 36 11 17 12 14 29 28 45 42 39 35 29 13 9 8 12 18 3 6 9 8 11 6
85 79 78 71 67 65 58 57 60 52 52 56 43 8 18 57 17 13 34 23 15 39 38 9 5 13 12 9 7 14 15 29 59 48 26 22 17 24 8 11 9 4 15 13 9 7 4
82 78 74 66 62 59 58 53 54 56 57 65 34 25 25 75 17 16 35 44 32 18 13 6 12 10 4 9 6 16 18 17 38 51 46 21 12 7 10 11 8 6 9 12 18 6 12
75 79 66 59 56 47 51 50 51 53 57 71 28 11 19 50 50 25 27 38 22 48 35 33 21 12 10 11 11 12 9 10 27 29 65 53 16 38 30 21 12 9 21 30 18 10 9
60 47 52 57 52 50 46 52 50 58 51 61 33 11 21 16 27 40 14 8 37 19 38 26 11 37 22 11 4 23 15 24 35 24 6 19 28 15 37 27 31 18 28 32 36 36 19
38 34 36 43 47 49 46 50 52 55 54 66 18 9 17 5 53 38 32 30 31 19 37 28 39 41 14 20 30 12 13 4 18 5 35 8 12 11 6 21 21 9 17 28 40 36 28
46 36 29 29 35 40 42 45 48 50 59 30 24 24 9 11 3 16 31 46 22 28 33 41 42 21 27 52 33 42 48 49 35 17 13 15 15 5 12 29 20 3 19 27 35 21 32
56 42 32 24 23 34 38 38 46 49 65 50 26 4 7 6 12 12 6 21 33 19 31 39 29 19 34 37 43 37 20 6 6 9 24 10 14 10 11 15 15 10 15 29 27 11 13
47 36 25 5 12 19 25 33 40 45 59 59 36 17 9 4 5 9 11 7 13 20 6 13 41 53 31 20 6 9 7 4 8 8 9 3 11 8 14 5 2 6 13 18 18 23 32
64 28 14 2 8 14 20 24 32 41 55 51 39 32 7 1 1 8 7 8 2 7 11 9 49 38 10 3 8 13 11 9 11 10 17 12 14 10 8 14 18 11 11 18 13 18 12
78 46 9 7 8 15 14 21 26 29 48 44 36 35 27 4 19 12 4 3 10 8 4 10 15 9 35 7 2 7 12 37 14 24 11 7 7 10 5 6 8 7 19 35 20 12 27
79 59 27 22 17 11 13 17 23 36 38 46 36 39 19 14 10 7 7 7 4 4 2 11 6 7 4 6 9 9 8 17 10 13 16 12 11 7 7 7 9 25 14 21 21 21 20
66 65 34 29 22 13 12 20 20 29 31 38 37 24 6 5 7 11 13 17 21 13 4 4 8 6 7 4 5 7 7 9 15 9 7 10 14 15 14 13 18 61 32 60 43 32 42
Wind_Direction_500mb
275 277 279 280 281 284 287 288 289 290 290 292 294 295 295 295 295 296 295 293 292 294 294 288 279 268 248 233 231 211 46 204 214 206 221 223 233 247 242 255 250 107 138 127 130 130 116
283 279 276 275 277 276 274 275 280 285 287 288 289 291 292 293 294 294 293 294 295 296 289 283 276 260 237 247 238 234 259 217 208 214 224 222 236 246 259 270 144 141 139 147 144 152 156
283 283 284 282 277 276 278 279 276 273 274 277 280 285 287 290 290 290 290 292 294 293 288 280 266 247 240 238 249 235 234 226 211 218 216 225 238 256 255 226 158 156 123 159 181 177 176
280 278 276 274 275 275 273 273 273 275 277 278 278 279 280 284 288 291 291 290 291 290 284 282 254 231 245 250 234 238 222 215 224 215 224 225 223 170 215 150 62 164 90 164 256 155 189
272 271 272 273 272 271 272 272 270 271 272 272 275 276 276 277 285 288 289 290 288 281 281 269 223 203 256 249 219 212 204 202 205 216 238 242 245 194 313 44 357 345 225 230 291 192 142
286 284 277 270 266 270 272 275 276 274 272 272 275 277 278 278 280 285 287 293 286 273 261 214 173 204 251 228 202 198 197 206 206 217 239 242 172 136 34 89 240 251 277 256 219 216 157
287 286 284 282 274 267 263 263 267 269 270 270 267 266 270 275 277 285 288 301 279 102 239 222 210 211 264 225 193 211 209 214 224 230 211 219 155 215 233 226 213 230 247 263 268 229 148
280 279 282 282 283 277 272 269 263 261 263 264 264 267 264 258 268 276 281 280 94 327 291 260 254 254 255 250 250 214 211 203 201 197 161 277 226 218 229 241 240 246 258 271 307 227 158
267 270 273 274 275 279 284 283 272 267 265 262 262 263 263 262 259 258 262 240 290 279 252 276 250 244 247 252 249 255 241 204 155 171 187 196 217 211 231 252 253 256 243 262 225 99 317
282 273 265 265 267 269 270 276 280 278 269 270 267 264 267 262 259 240 237 228 264 170 278 264 224 231 236 240 254 245 235 208 192 191 177 214 228 230 247 238 224 247 235 251 215 146 209
283 282 278 272 260 262 262 263 268 273 274 266 263 262 251 234 223 217 192 193 183 148 276 246 224 216 213 217 209 245 235 209 187 171 157 228 220 227 233 231 219 231 222 232 184 169 155
291 288 280 277 271 259 259 258 258 262 270 272 263 259 245 230 230 215 202 174 162 76 240 268 203 183 168 206 213 234 243 213 209 186 203 217 229 223 236 232 215 209 190 37 57 91 8
297 292 284 273 273 267 263 257 255 255 252 267 267 260 250 218 228 215 215 185 133 200 195 224 241 163 197 199 209 195 225 199 181 169 209 231 246 256 213 220 171 100 77 290 332 352 228
298 296 291 284 278 269 263 259 252 246 245 248 264 263 255 219 206 205 199 100 219 204 200 198 239 177 192 195 212 207 221 215 217 155 177 210 246 253 213 197 183 178 153 161 208 205 264
295 291 286 283 277 265 262 258 255 247 241 229 248 258 258 224 216 220 205 203 214 201 202 218 60 160 216 213 203 206 222 226 196 176 210 195 234 259 224 221 163 206 161 190 160 198 106
293 289 288 281 274 267 265 255 250 238 234 227 230 251 259 229 215 194 189 223 212 180 165 204 225 181 197 200 200 201 211 219 222 200 185 218 227 231 254 210 330 178 175 109 19 193 247
295 290 288 285 275 265 261 253 243 232 227 223 209 214 227 199 182 177 213 219 217 225 225 171 219 244 207 178 187 213 218 225 213 209 195 199 163 261 138 171 191 98 84 70 113 141 190
293 289 285 280 276 263 257 248 240 228 221 214 195 197 234 182 163 200 221 198 266 217 247 270 301 218 234 228 275 218 222 218 214 212 194 201 181 228 213 286 249 129 155 122 114 301 305
296 285 280 280 273 270 254 245 238 226 217 197 179 204 190 180 193 214 231 225 244 246 221 247 242 205 156 197 234 211 245 254 259 208 207 185 204 132 354 342 356 170 133 88 100 106 237
302 287 275 274 266 281 249 238 238 224 218 205 170 179 217 198 220 210 219 228 222 240 262 264 284 311 293 271 214 272 289 280 287 209 203 187 172 204 210 200 147 188 166 172 169 183 227
308 282 275 268 262 265 243 236 233 227 214 194 186 204 172 184 218 232 217 251 214 233 221 237 262 238 244 299 334 242 259 282 287 237 206 212 202 192 214 178 183 190 190 194 205 219 204
317 306 283 266 253 248 238 228 224 225 207 214 163 191 205 237 210 218 227 239 241 237 224 238 236 252 311 257 235 309 334 260 247 289 183 206 210 115 62 151 151 150 212 214 215 221 229
341 319 289 269 257 236 215 217 218 216 206 203 200 213 66 232 144 186 219 236 242 247 272 255 246 261 231 249 275 268 271 276 260 221 189 164 154 102 152 140 115 230 196 213 228 223 214
354 342 298 270 263 221 206 207 208 209 206 204 201 154 182 269 171 240 204 225 236 256 238 261 276 248 276 278 295 293 218 147 184 37 115 208 122 119 151 131 210 186 164 200 223 219 208
353 2 18 115 168 187 192 201 198 204 204 208 208 213 155 258 158 253 268 288 0 349 318 280 271 274 274 311 292 212 224 129 338 31 346 24 123 104 146 208 55 173 164 155 166 244 203
5 348 356 56 152 177 188 199 200 204 200 203 212 218 208 51 238 349 13 16 317 329 323 254 264 291 314 164 196 225 154 193 209 112 352 50 66 108 142 162 208 187 165 142 104 255 198
16 12 22 35 239 192 186 195 197 195 184 191 203 205 208 215 263 353 86 158 165 172 213 299 334 281 213 181 160 237 177 201 209 163 167 68 52 126 103 105 279 260 142 134 176 228 197
23 28 56 48 128 154 172 175 176 178 180 183 194 194 199 187 250 253 242 204 279 204 176 323 322 245 266 155 189 238 174 186 149 161 161 143 135 147 97 106 226 163 136 170 207 200 189
27 34 43 49 70 95 144 176 185 180 180 201 204 199 128 176 233 226 244 233 233 243 323 324 309 249 63 223 312 279 221 150 145 190 201 166 174 159 168 200 216 184 196 209 221 211 210
Wind_Speed_850mb
38 38 39 38 38 39 40 40 38 38 37 39 40 39 40 40 40 41 39 37 35 33 30 29 26 25 20 30 54 15 4 48 42 40 43 45 39 29 12 14 14 11 11 23 23 17 19
40 42 44 45 44 45 44 43 41 42 43 43 41 40 41 41 43 43 42 40 36 33 32 28 26 27 25 30 51 49 27 33 49 51 45 43 34 34 26 19 10 14 20 28 15 17 16
40 40 42 44 46 48 49 49 49 46 45 45 43 42 41 42 44 45 43 40 37 34 33 29 27 27 36 63 23 44 49 45 41 42 42 36 26 33 21 8 16 24 11 7 14 17 10
43 44 44 44 45 46 49 51 51 51 52 51 46 44 44 43 44 44 43 40 35 33 32 29 25 25 34 55 55 25 36 52 39 36 37 24 18 1 5 3 2 9 10 7 11 18 7
44 45 47 48 47 48 50 49 48 50 53 53 50 49 45 44 43 43 42 39 33 31 29 20 20 24 24 19 45 36 46 42 40 39 38 31 22 7 4 5 10 8 9 11 9 23 12
47 47 47 48 47 48 50 51 51 50 49 48 51 51 50 47 41 41 39 33 30 26 18 10 11 11 46 29 48 48 42 40 41 38 43 27 8 3 6 8 13 11 10 9 12 12 13
56 55 53 52 51 52 52 52 52 52 50 49 48 48 49 48 41 38 36 10 7 2 13 23 22 30 31 33 39 52 45 49 57 49 16 10 5 11 16 16 11 12 12 17 7 12 14
59 59 58 56 53 53 54 54 52 49 49 49 47 48 46 39 37 36 30 13 4 10 19 34 50 58 65 27 14 43 52 54 38 15 10 1 13 15 15 15 16 14 17 24 13 15 16
65 60 61 61 60 57 51 51 55 52 50 48 46 43 42 34 30 32 30 20 21 16 12 28 45 44 70 24 46 53 49 47 11 14 15 17 15 17 20 19 18 14 16 22 13 2 11
56 65 77 70 63 63 58 52 46 48 51 50 47 39 35 27 25 33 29 15 2 10 5 13 18 29 58 49 21 52 55 53 15 30 16 16 24 24 21 23 19 18 16 27 11 14 12
57 60 61 64 77 69 62 58 51 45 46 51 49 43 31 26 20 25 23 20 17 13 9 14 19 48 59 49 18 36 52 63 26 14 14 30 16 16 25 35 26 20 15 17 13 14 8
61 62 60 59 59 74 74 65 58 50 45 44 44 43 33 31 45 33 29 18 20 7 17 11 10 30 26 50 37 42 28 72 57 20 13 25 41 18 30 20 29 16 7 11 10 7 1
66 66 64 67 64 62 60 69 66 60 45 42 41 40 39 38 33 35 29 12 4 14 11 12 13 13 49 29 27 21 30 30 24 12 25 14 33 21 16 14 10 10 13 4 7 7 11
66 63 64 65 62 60 60 58 70 60 53 42 41 39 45 48 45 26 18 6 22 19 32 7 5 6 32 40 24 25 24 33 26 11 11 21 25 26 11 18 16 13 18 12 14 7 19
71 68 66 64 64 61 58 55 52 64 58 45 38 41 50 51 43 34 12 23 26 20 37 15 8 4 11 28 18 33 36 32 17 21 29 17 27 15 11 14 28 10 8 18 12 6 2
81 78 72 66 63 68 64 59 56 61 56 52 43 39 55 45 34 38 7 58 17 18 6 48 30 14 13 15 34 29 43 38 40 28 20 17 21 23 21 4 9 22 12 5 4 10 11
81 79 76 71 67 61 63 55 56 53 58 46 44 13 17 40 38 29 24 35 43 16 28 13 36 11 17 12 14 29 28 45 42 39 35 29 13 9 8 12 18 3 6 9 8 11 6
85 79 78 71 67 65 58 57 60 52 52 56 43 8 18 57 17 13 34 23 15 39 38 9 5 13 12 9 7 14 15 29 59 48 26 22 17 24 8 11 9 4 15 13 9 7 4
82 78 74 66 62 59 58 53 54 56 57 65 34 25 25 75 17 16 35 44 32 18 13 6 12 10 4 9 6 16 18 17 38 51 46 21 12 7 10 11 8 6 9 12 18 6 12
75 79 66 59 56 47 51 50 51 53 57 71 28 11 19 50 50 25 27 38 22 48 35 33 21 12 10 11 11 12 9 10 27 29 65 53 16 38 30 21 12 9 21 30 18 10 9
60 47 52 57 52 50 46 52 50 58 51 61 33 11 21 16 27 40 14 8 37 19 38 26 11 37 22 11 4 23 15 24 35 24 6 19 28 15 37 27 31 18 28 32 36 36 19
38 34 36 43 47 49 46 50 52 55 54 66 18 9 17 5 53 38 32 30 31 19 37 28 39 41 14 20 30 12 13 4 18 5 35 8 12 11 6 21 21 9 17 28 40 36 28
46 36 29 29 35 40 42 45 48 50 59 30 24 24 9 11 3 16 31 46 22 28 33 41 42 21 27 52 33 42 48 49 35 17 13 15 15 5 12 29 20 3 19 27 35 21 32
56 42 32 24 23 34 38 38 46 49 65 50 26 4 7 6 12 12 6 21 33 19 31 39 29 19 34 37 43 37 20 6 6 9 24 10 14 10 11 15 15 10 15 29 27 11 13
47 36 25 5 12 19 25 33 40 45 59 59 36 17 9 4 5 9 11 7 13 20 6 13 41 53 31 20 6 9 7 4 8 8 9 3 11 8 14 5 2 6 13 18 18 23 32
64 28 14 2 8 14 20 24 32 41 55 51 39 32 7 1 1 8 7 8 2 7 11 9 49 38 10 3 8 13 11 9 11 10 17 12 14 10 8 14 18 11 11 18 13 18 12
78 46 9 7 8 15 14 21 26 29 48 44 36 35 27 4 19 12 4 3 10 8 4 10 15 9 35 7 2 7 12 37 14 24 11 7 7 10 5 6 8 7 19 35 20 12 27
79 59 27 22 17 11 13 17 23 36 38 46 36 39 19 14 10 7 7 7 4 4 2 11 6 7 4 6 9 9 8 17 10 13 16 12 11 7 7 7 9 25 14 21 21 21 20
66 65 34 29 22 13 12 20 20 29 31 38 37 24 6 5 7 11 13 17 21 13 4 4 8 6 7 4 5 7 7 9 15 9 7 10 14 15 14 13 18 61 32 60 43 32 42
Wind_Direction_850mb
275 277 279 280 281 284 287 288 289 290 290 292 294 295 295 295 295 296 295 293 292 294 294 288 279 268 248 233 231 211 46 204 214 206 221 223 233 247 242 255 250 107 138 127 130 130 116
283 279 276 275 277 276 274 275 280 285 287 288 289 291 292 293 294 294 293 294 295 296 289 283 276 260 237 247 238 234 259 217 208 214 224 222 236 246 259 270 144 141 139 147 144 152 156
283 283 284 282 277 276 278 279 276 273 274 277 280 285 287 290 290 290 290 292 294 293 288 280 266 247 240 238 249 235 234 226 211 218 216 225 238 256 255 226 158 156 123 159 181 177 176
280 278 276 274 275 275 273 273 273 275 277 278 278 279 280 284 288 291 291 290 291 290 284 282 254 231 245 250 234 238 222 215 224 215 224 225 223 170 215 150 62 164 90 164 256 155 189
272 271 272 273 272 271 272 272 270 271 272 272 275 276 276 277 285 288 289 290 288 281 281 269 223 203 256 249 219 212 204 202 205 216 238 242 245 194 313 44 357 345 225 230 291 192 142
286 284 277 270 266 270 272 275 276 274 272 272 275 277 278 278 280 285 287 293 286 273 261 214 173 204 251 228 202 198 197 206 206 217 239 242 172 136 34 89 240 251 277 256 219 216 157
287 286 284 282 274 267 263 263 267 269 270 270 267 266 270 275 277 285 288 301 279 102 239 222 210 211 264 225 193 211 209 214 224 230 211 219 155 215 233 226 213 230 247 263 268 229 148
280 279 282 282 283 277 272 269 263 261 263 264 264 267 264 258 268 276 281 280 94 327 291 260 254 254 255 250 250 214 211 203 201 197 161 277 226 218 229 241 240 246 258 271 307 227 158
267 270 273 274 275 279 284 283 272 267 265 262 262 263 263 262 259 258 262 240 290 279 252 276 250 244 247 252 249 255 241 204 155 171 187 196 217 211 231 252 253 256 243 262 225 99 317
282 273 265 265 267 269 270 276 280 278 269 270 267 264 267 262 259 240 237 228 264 170 278 264 224 231 236 240 254 245 235 208 192 191 177 214 228 230 247 238 224 247 235 251 215 146 209
283 282 278 272 260 262 262 263 268 273 274 266 263 262 251 234 223 217 192 193 183 148 276 246 224 216 213 217 209 245 235 209 187 171 157 228 220 227 233 231 219 231 222 232 184 169 155
291 288 280 277 271 259 259 258 258 262 270 272 263 259 245 230 230 215 202 174 162 76 240 268 203 183 168 206 213 234 243 213 209 186 203 217 229 223 236 232 215 209 190 37 57 91 8
297 292 284 273 273 267 263 257 255 255 252 267 267 260 250 218 228 215 215 185 133 200 195 224 241 163 197 199 209 195 225 199 181 169 209 231 246 256 213 220 171 100 77 290 332 352 228
298 296 291 284 278 269 263 259 252 246 245 248 264 263 255 219 206 205 199 100 219 204 200 198 239 177 192 195 212 207 221 215 217 155 177 210 246 253 213 197 183 178 153 161 208 205 264
295 291 286 283 277 265 262 258 255 247 241 229 248 258 258 224 216 220 205 203 214 201 202 218 60 160 216 213 203 206 222 226 196 176 210 195 234 259 224 221 163 206 161 190 160 198 106
293 289 288 281 274 267 265 255 250 238 234 227 230 251 259 229 215 194 189 223 212 180 165 204 225 181 197 200 200 201 211 219 222 200 185 218 227 231 254 210 330 178 175 109 19 193 247
295 290 288 285 275 265 261 253 243 232 227 223 209 214 227 199 182 177 213 219 217 225 225 171 219 244 207 178 187 213 218 225 213 209 195 199 163 261 138 171 191 98 84 70 113 141 190
293 289 285 280 276 263 257 248 240 228 221 214 195 197 234 182 163 200 221 198 266 217 247 270 301 218 234 228 275 218 222 218 214 212 194 201 181 228 213 286 249 129 155 122 114 301 305
296 285 280 280 273 270 254 245 238 226 217 197 179 204 190 180 193 214 231 225 244 246 221 247 242 205 156 197 234 211 245 254 259 208 207 185 204 132 354 342 356 170 133 88 100 106 237
302 287 275 274 266 281 249 238 238 224 218 205 170 179 217 198 220 210 219 228 222 240 262 264 284 311 293 271 214 272 289 280 287 209 203 187 172 204 210 200 147 188 166 172 169 183 227
308 282 275 268 262 265 243 236 233 227 214 194 186 204 172 184 218 232 217 251 214 233 221 237 262 238 244 299 334 242 259 282 287 237 206 212 202 192 214 178 183 190 190 194 205 219 204
317 306 283 266 253 248 238 228 224 225 207 214 163 191 205 237 210 218 227 239 241 237 224 238 236 252 311 257 235 309 334 260 247 289 183 206 210 115 62 151 151 150 212 214 215 221 229
341 319 289 269 257 236 215 217 218 216 206 203 200 213 66 232 144 186 219 236 242 247 272 255 246 261 231 249 275 268 271 276 260 221 189 164 154 102 152 140 115 230 196 213 228 223 214
354 342 298 270 263 221 206 207 208 209 206 204 201 154 182 269 171 240 204 225 236 256 238 261 276 248 276 278 295 293 218 147 184 37 115 208 122 119 151 131 210 186 164 200 223 219 208
353 2 18 115 168 187 192 201 198 204 204 208 208 213 155 258 158 253 268 288 0 349 318 280 271 274 274 311 292 212 224 129 338 31 346 24 123 104 146 208 55 173 164 155 166 244 203
5 348 356 56 152 177 188 199 200 204 200 203 212 218 208 51 238 349 13 16 317 329 323 254 264 291 314 164 196 225 154 193 209 112 352 50 66 108 142 162 208 187 165 142 104 255 198
16 12 22 35 239 192 186 195 197 195 184 191 203 205 208 215 263 353 86 158 165 172 213 299 334 281 213 181 160 237 177 201 209 163 167 68 52 126 103 105 279 260 142 134 176 228 197
23 28 56 48 128 154 172 175 176 178 180 183 194 194 199 187 250 253 242 204 279 204 176 323 322 245 266 155 189 238 174 186 149 161 161 143 135 147 97 106 226 163 136 170 207 200 189
27 34 43 49 70 95 144 176 185 180 180 201 204 199 128 176 233 226 244 233 233 243 323 324 309 249 63 223 312 279 221 150 145 190 201 166 174 159 168 200 216 184 196 209 221 211 210